[[{"header":{"parameterUnit":"m.s-1","parameterCategory":1,"la1":30.2991,"la2":30.254,"lo1":-89.0895,"lo2":-89.0444,"dy":0.0017,"dx":0.0017,"nx":28,"ny":28,"refTime":"2024-08-05T21:00:00:Z","depth":0,"parameterNumber":2,"parameterNumberName":"U-component_of_WINDS"},"data":[0,0,0,0,0,0,0,0,0,0,0,0,0,0,0,0,0,0,0,0,0,0,0,0,0,0,0,0,0,0,0,0,0,0,0,0,0,0,0,0,0,0,0,0,0,0,0,0,0,0,0,0,0,0,0,0,0,0,2.6804,2.6804,0,2.6878,2.6878,2.6879,2.6904,2.6904,2.6903,2.6903,2.6981,2.6983,2.6986,0,0,0,0,0,0,0,0,0,0,0,0,0,2.6689,2.6691,2.6803,2.6804,2.6805,2.6877,2.6878,2.6879,2.6904,2.6904,2.6903,2.6903,2.698,2.6983,2.6986,0,0,0,0,0,0,0,0,0,0,0,0,0,2.6748,2.6692,2.6803,2.6826,2.6829,2.6877,2.6878,2.688,2.6904,2.6904,2.6903,2.6903,2.6979,2.6983,2.6986,2.7018,0,0,2.6997,2.6999,0,0,0,0,0,0,0,0,2.6745,2.6753,2.6822,2.6825,2.6828,2.6881,2.6867,2.6926,2.6904,2.6876,2.6903,2.6902,2.6948,2.6954,2.6969,2.7021,2.7025,2.6997,2.7,2.7001,2.7002,0,0,0,0,0,0,0,2.6741,2.675,2.6833,2.6823,2.6827,2.6835,2.6843,2.6878,2.6914,2.6878,2.688,2.6888,2.695,2.6966,2.6971,2.7026,2.6997,2.7,2.7003,2.7004,2.7113,2.7114,0,0,0,0,0,0,2.6732,2.6746,2.6831,2.6835,2.6784,2.6837,2.6846,2.6864,2.6913,2.692,2.6889,2.6889,2.696,2.6967,2.6974,2.7017,2.7001,2.7004,2.7006,2.7112,2.7113,2.7114,0,0,0,0,0,0,2.673,2.674,2.6828,2.6791,2.6803,2.684,2.686,2.6866,2.6882,2.6921,2.6928,2.6898,2.696,2.6969,2.7008,2.702,2.7006,2.7009,2.7111,2.7112,2.7114,2.7102,0,0,0,0,0,0,2.6726,2.6739,2.6749,2.6791,2.6805,2.6858,2.6861,2.6868,2.6888,2.6889,2.6932,2.6939,2.696,2.7002,2.7011,2.7025,2.7012,2.711,2.7112,2.7113,2.7101,2.7102,2.7103,0,0,0,0,0,2.6722,2.6742,2.6749,2.676,2.6819,2.6858,2.6866,2.689,2.6889,2.6901,2.6927,2.6937,2.7017,2.7006,2.7016,2.7031,2.711,2.7111,2.7113,2.7101,2.7102,2.7103,0,0,0,0,0,0,2.67,2.6748,2.6757,2.679,2.682,2.6862,2.6878,2.689,2.6921,2.6921,2.695,2.696,2.6997,2.7018,2.7004,2.7067,2.7064,2.7068,2.7051,2.7053,2.7054,2.7049,2.7015,0,0,0,0,0,2.6699,2.6726,2.6767,2.6794,2.6808,2.6841,2.6859,2.6875,2.6907,2.692,2.6949,2.6981,2.7014,2.7035,2.7067,2.7105,2.7116,2.7121,2.7122,2.7122,2.7125,2.7151,2.7155,2.712,2.712,2.7119,0,0,2.6698,2.6727,2.6742,2.679,2.6815,2.6845,2.6851,2.6881,2.6904,2.6925,2.6963,2.6986,2.7024,2.7064,2.7083,2.7082,2.7138,2.7125,2.7125,2.7128,2.7153,2.7157,2.716,2.7121,2.712,2.712,0,0,2.671,2.6734,2.676,2.6786,2.6824,2.6847,2.6853,2.6895,2.6911,2.695,2.6968,2.6997,2.7051,2.7079,2.71,2.7129,2.7141,2.7139,2.7144,2.7169,2.7172,2.7175,2.7187,2.7191,2.7141,2.7141,2.7141,0,2.6703,2.6747,2.6772,2.6803,2.6825,2.6846,2.6875,2.6899,2.6945,2.6961,2.696,2.7033,2.706,2.7108,2.7116,2.7131,2.7142,2.7133,2.7169,2.7172,2.7175,2.7188,2.7192,2.7141,2.7141,2.7141,2.7141,0,2.6738,2.6769,2.6786,2.6832,2.6856,2.6885,2.6917,2.6939,2.6954,2.6978,2.702,2.7054,2.7095,2.7108,2.7122,2.716,2.7159,2.7163,2.7161,2.7178,2.719,2.7195,2.7141,2.7141,2.7141,2.7141,0,0,2.6735,2.6798,2.6804,2.6827,2.6873,2.6898,2.693,2.6971,2.699,2.7024,2.7053,2.7102,2.7108,2.7132,2.715,2.7172,2.7197,2.7175,2.7176,2.718,2.7244,2.7241,2.7246,2.7205,2.7206,2.7207,2.7242,0,2.6755,2.6812,2.6838,2.6884,2.6915,2.6938,2.6967,2.7,2.7024,2.7055,2.7083,2.7117,2.7121,2.7137,2.7159,2.7189,2.721,2.7187,2.7236,2.7237,2.7226,2.7252,2.7248,2.7279,2.7247,2.7247,2.7248,0,2.6784,2.6818,2.6868,2.6915,2.6928,2.6953,2.6995,2.7024,2.7064,2.708,2.711,2.7128,2.7166,2.7163,2.7217,2.7201,2.7223,2.7241,2.7243,2.7249,2.7243,2.726,2.7289,2.7294,2.7255,2.7255,2.7254,0,2.678,2.6838,2.6877,2.6895,2.695,2.6968,2.6992,2.7031,2.7055,2.7092,2.7109,2.715,2.7173,2.7206,2.7237,2.7231,2.729,2.7288,2.7307,2.7306,2.7318,2.7317,2.7352,2.733,2.733,2.733,2.733,0,2.6799,2.6829,2.6876,2.6899,2.6935,2.6967,2.7002,2.7028,2.7064,2.7095,2.7118,2.7147,2.7185,2.7221,2.7245,2.7289,2.7299,2.7315,2.7321,2.7313,2.7311,2.7328,2.7327,2.7332,2.7331,2.7331,2.7331,0,2.6799,2.6832,2.6876,2.6925,2.6939,2.6963,2.7007,2.7032,2.7059,2.7098,2.711,2.7152,2.7195,2.7229,2.7285,2.7302,2.7349,2.7355,2.7335,2.7339,2.7356,2.7355,2.7404,2.7413,2.7384,2.7385,2.7385,0,2.6809,2.6833,2.6887,2.6909,2.6933,2.6968,2.6994,2.7028,2.7054,2.7104,2.7125,2.7169,2.7207,2.7275,2.7312,2.7356,2.7365,2.7379,2.7372,2.7364,2.7368,2.7366,2.7371,2.738,2.738,2.738,2.738,0,2.6825,2.6841,2.6876,2.6919,2.695,2.6985,2.7021,2.7038,2.7079,2.7108,2.7153,2.7182,2.7241,2.7286,2.7335,2.7363,2.738,2.7383,2.739,2.7382,2.737,2.738,2.7339,2.7381,2.7381,2.7381,2.7381,2.7381,2.6832,2.6856,2.6898,2.6938,2.6969,2.7004,2.7031,2.7063,2.71,2.715,2.7169,2.7215,2.726,2.7327,2.7356,2.7394,2.7396,2.7405,2.7408,2.741,2.741,2.7364,2.7403,2.7403,2.7403,2.7403,2.7403,0,2.685,2.6879,2.6916,2.6967,2.7,2.7013,2.7055,2.7082,2.7123,2.7162,2.72,2.7254,2.7299,2.7341,2.739,2.7413,2.7422,2.7425,2.7424,2.7431,2.7405,2.7395,2.7417,2.7417,2.7417,2.7417,2.7417,2.7417,2.6863,2.6905,2.6928,2.6987,2.7017,2.7063,2.7086,2.712,2.7152,2.721,2.7248,2.7276,2.7318,2.7371,2.7414,2.7426,2.7444,2.7444,2.7458,2.7433,2.7432,2.743,2.7421,2.7447,2.7447,2.7481,2.7481,2.7481]},{"header":{"parameterUnit":"m.s-1","parameterCategory":1,"la1":30.2991,"la2":30.254,"lo1":-89.0895,"lo2":-89.0444,"dy":0.0017,"dx":0.0017,"nx":28,"ny":28,"refTime":"2024-08-05T21:00:00:Z","depth":0,"parameterNumber":3,"parameterNumberName":"V-component_of_WINDS"},"data":[0,0,0,0,0,0,0,0,0,0,0,0,0,0,0,0,0,0,0,0,0,0,0,0,0,0,0,0,0,0,0,0,0,0,0,0,0,0,0,0,0,0,0,0,0,0,0,0,0,0,0,0,0,0,0,0,0,0,-1.5174,-1.5173,0,-1.5085,-1.5084,-1.5083,-1.5148,-1.5151,-1.5153,-1.5156,-1.506,-1.5055,-1.5049,0,0,0,0,0,0,0,0,0,0,0,0,0,-1.5399,-1.5394,-1.5174,-1.5173,-1.5172,-1.5085,-1.5084,-1.5082,-1.5147,-1.5151,-1.5154,-1.5157,-1.5062,-1.5055,-1.5049,0,0,0,0,0,0,0,0,0,0,0,0,0,-1.5304,-1.5393,-1.5174,-1.5194,-1.5195,-1.5085,-1.5083,-1.5082,-1.5146,-1.5151,-1.5155,-1.5159,-1.5064,-1.5056,-1.5048,-1.4913,0,0,-1.5024,-1.5021,0,0,0,0,0,0,0,0,-1.5309,-1.5296,-1.5192,-1.5192,-1.5193,-1.5132,-1.5127,-1.5025,-1.5145,-1.5165,-1.5156,-1.5161,-1.508,-1.5071,-1.5045,-1.4908,-1.4904,-1.5023,-1.5019,-1.5015,-1.5013,0,0,0,0,0,0,0,-1.5316,-1.53,-1.5139,-1.5191,-1.5191,-1.5206,-1.5198,-1.5108,-1.5099,-1.5163,-1.5168,-1.5157,-1.5081,-1.5052,-1.5043,-1.4903,-1.5024,-1.5017,-1.5012,-1.5009,-1.4653,-1.4648,0,0,0,0,0,0,-1.5321,-1.5305,-1.5142,-1.5136,-1.5263,-1.5199,-1.5189,-1.5147,-1.51,-1.5097,-1.5153,-1.516,-1.5063,-1.5052,-1.504,-1.4879,-1.5015,-1.5008,-1.5003,-1.4658,-1.4652,-1.4647,0,0,0,0,0,0,-1.5326,-1.5306,-1.5145,-1.5222,-1.5202,-1.519,-1.5143,-1.5143,-1.5114,-1.5092,-1.5091,-1.5125,-1.5066,-1.5051,-1.4945,-1.4877,-1.5004,-1.4997,-1.4663,-1.4656,-1.4649,-1.4556,0,0,0,0,0,0,-1.5332,-1.5307,-1.5256,-1.522,-1.5198,-1.5052,-1.5138,-1.5138,-1.5101,-1.5109,-1.5066,-1.5063,-1.5068,-1.4956,-1.4937,-1.4868,-1.4991,-1.4669,-1.466,-1.4652,-1.4565,-1.4547,-1.4531,0,0,0,0,0,-1.534,-1.5232,-1.5253,-1.5233,-1.5134,-1.5048,-1.5035,-1.5045,-1.5095,-1.5043,-1.503,-1.5064,-1.4888,-1.4945,-1.4923,-1.4851,-1.4673,-1.4663,-1.4652,-1.4573,-1.4551,-1.4532,0,0,0,0,0,0,-1.5258,-1.5228,-1.5251,-1.5128,-1.5091,-1.5059,-1.4994,-1.5021,-1.4967,-1.4976,-1.499,-1.498,-1.4869,-1.485,-1.4914,-1.4719,-1.4788,-1.4773,-1.4735,-1.4714,-1.4697,-1.4704,-1.4984,0,0,0,0,0,-1.5226,-1.516,-1.5136,-1.5031,-1.5011,-1.5006,-1.4968,-1.498,-1.494,-1.4924,-1.4903,-1.4862,-1.4798,-1.4755,-1.4694,-1.4564,-1.4555,-1.4504,-1.4487,-1.4473,-1.4459,-1.439,-1.4367,-1.4612,-1.4612,-1.4612,0,0,-1.5158,-1.5134,-1.5091,-1.5014,-1.4986,-1.4916,-1.4991,-1.4914,-1.4862,-1.4912,-1.4811,-1.4794,-1.475,-1.4631,-1.4578,-1.4612,-1.439,-1.4459,-1.4448,-1.4442,-1.4376,-1.4353,-1.4332,-1.4605,-1.4606,-1.4607,0,0,-1.5,-1.4975,-1.4885,-1.4856,-1.4814,-1.4812,-1.479,-1.4755,-1.4746,-1.4646,-1.4682,-1.462,-1.4509,-1.4476,-1.4445,-1.4278,-1.4307,-1.4257,-1.4167,-1.41,-1.408,-1.4063,-1.4004,-1.3983,-1.4244,-1.4244,-1.4244,0,-1.4921,-1.4819,-1.4835,-1.4756,-1.4721,-1.4765,-1.4674,-1.4645,-1.4584,-1.4558,-1.4598,-1.4461,-1.4434,-1.4309,-1.4268,-1.4241,-1.4217,-1.4262,-1.4082,-1.4065,-1.4049,-1.3993,-1.3971,-1.4238,-1.4239,-1.4239,-1.424,0,-1.4725,-1.4653,-1.4586,-1.4528,-1.4486,-1.4401,-1.4403,-1.4358,-1.4374,-1.4367,-1.4265,-1.4235,-1.417,-1.4141,-1.4154,-1.4018,-1.4041,-1.4081,-1.4151,-1.402,-1.3967,-1.3946,-1.423,-1.4232,-1.4233,-1.4235,0,0,-1.451,-1.4465,-1.444,-1.4415,-1.4373,-1.4317,-1.4235,-1.4173,-1.4135,-1.4092,-1.4023,-1.3929,-1.3966,-1.3931,-1.3941,-1.3882,-1.3752,-1.393,-1.3929,-1.3898,-1.3601,-1.3571,-1.3546,-1.3772,-1.3768,-1.3765,-1.3605,0,-1.435,-1.4208,-1.4221,-1.4085,-1.402,-1.4062,-1.399,-1.3956,-1.3948,-1.3891,-1.3882,-1.3816,-1.387,-1.3849,-1.3793,-1.378,-1.3693,-1.3792,-1.3708,-1.3704,-1.3717,-1.3518,-1.3485,-1.3336,-1.3584,-1.3581,-1.3578,0,-1.4144,-1.4097,-1.3955,-1.3925,-1.3898,-1.3833,-1.3779,-1.3724,-1.3686,-1.3685,-1.3647,-1.3668,-1.3585,-1.3657,-1.3543,-1.361,-1.3577,-1.3565,-1.356,-1.3552,-1.3633,-1.3504,-1.3288,-1.3266,-1.3546,-1.3548,-1.3551,0,-1.4002,-1.3903,-1.3806,-1.3783,-1.3745,-1.3699,-1.3681,-1.3648,-1.3611,-1.3563,-1.3539,-1.3481,-1.3449,-1.3404,-1.3409,-1.3462,-1.3293,-1.3366,-1.3289,-1.3289,-1.325,-1.3253,-1.3025,-1.3229,-1.323,-1.323,-1.323,0,-1.3822,-1.3734,-1.3742,-1.3682,-1.3585,-1.3601,-1.3504,-1.3491,-1.3462,-1.34,-1.3433,-1.3374,-1.3385,-1.3326,-1.3329,-1.3234,-1.3219,-1.3216,-1.3218,-1.3213,-1.3213,-1.319,-1.3201,-1.3224,-1.3225,-1.3226,-1.3228,0,-1.3646,-1.3649,-1.3546,-1.352,-1.3511,-1.344,-1.3417,-1.3361,-1.3357,-1.3279,-1.3261,-1.3254,-1.3187,-1.3188,-1.311,-1.3113,-1.2997,-1.3011,-1.301,-1.3012,-1.2936,-1.2943,-1.2685,-1.2653,-1.2878,-1.2876,-1.2874,0,-1.3531,-1.3465,-1.3432,-1.3394,-1.3374,-1.3311,-1.3275,-1.3288,-1.3248,-1.3202,-1.3151,-1.3087,-1.3036,-1.2927,-1.2914,-1.2856,-1.2868,-1.2782,-1.286,-1.2857,-1.2867,-1.2871,-1.2865,-1.2767,-1.2764,-1.2762,-1.2761,0,-1.3326,-1.3331,-1.3277,-1.3224,-1.318,-1.3138,-1.31,-1.3066,-1.3076,-1.3029,-1.2962,-1.2923,-1.2846,-1.2782,-1.2726,-1.2707,-1.2734,-1.2737,-1.2716,-1.271,-1.2712,-1.271,-1.2968,-1.2742,-1.2744,-1.2745,-1.2746,-1.2747,-1.3177,-1.3121,-1.309,-1.3029,-1.3003,-1.2967,-1.2913,-1.2904,-1.2848,-1.2787,-1.2799,-1.2723,-1.2689,-1.2618,-1.2593,-1.2535,-1.2565,-1.2534,-1.2527,-1.2519,-1.2511,-1.2722,-1.2524,-1.2525,-1.2525,-1.2526,-1.2526,0,-1.2974,-1.2957,-1.2901,-1.2848,-1.2801,-1.2834,-1.2794,-1.2751,-1.2685,-1.2652,-1.2603,-1.2526,-1.2465,-1.2449,-1.239,-1.2346,-1.2358,-1.233,-1.2333,-1.2329,-1.2487,-1.2511,-1.2322,-1.2322,-1.2322,-1.2322,-1.2322,-1.2322,-1.2863,-1.277,-1.2771,-1.2666,-1.2649,-1.2577,-1.2552,-1.2519,-1.2493,-1.2406,-1.2356,-1.2347,-1.2321,-1.2261,-1.2207,-1.2204,-1.218,-1.2148,-1.2149,-1.2297,-1.2317,-1.2337,-1.236,-1.2142,-1.2142,-1.1997,-1.1995,-1.1994]}]]